Date,TemperatureHighF,TemperatureAvgF,TemperatureLowF,DewpointHighF,DewpointAvgF,DewpointLowF,HumidityHigh,HumidityAvg,HumidityLow,PressureMaxIn,PressureMinIn,WindSpeedMaxMPH,WindSpeedAvgMPH,GustSpeedMaxMPH,PrecipitationSumIn
2013-7-1,72,67,63,69,65,62,98,94,85,29.96,29.85,11,0,11,0.01
2013-7-2,82,70,63,76,67,62,99,92,76,30.05,29.95,11,0,11,0.00
2013-7-3,88,75,65,78,71,64,99,87,62,30.11,30.03,9,0,9,0.00
2013-7-4,85,76,70,76,72,69,98,89,73,30.12,30.05,9,0,9,0.00
2013-7-5,87,74,67,78,71,67,99,91,67,30.10,30.01,15,0,15,0.00
2013-7-6,84,75,68,73,70,67,99,86,59,30.10,29.98,6,0,8,0.00
2013-7-7,85,75,69,76,71,68,99,88,67,30.01,29.88,9,0,9,0.00
2013-7-8,83,74,67,74,69,66,96,86,63,30.01,29.91,9,0,9,0.00
2013-7-9,86,72,66,76,69,65,98,91,67,30.01,29.86,20,0,20,0.00
2013-7-10,85,75,68,78,72,67,100,91,77,29.87,29.66,12,0,12,0.00
2013-7-11,76,69,61,68,64,60,96,83,67,29.98,29.74,11,0,11,0.59
2013-7-12,77,67,58,66,62,57,99,85,62,30.13,29.98,11,0,11,0.00
2013-7-13,80,70,60,72,66,59,99,87,73,30.21,30.12,18,0,18,0.59
2013-7-14,87,76,66,77,71,65,99,85,65,30.27,30.19,10,0,10,0.00
2013-7-15,88,77,67,76,70,66,99,81,53,30.24,30.16,8,0,8,0.00
2013-7-16,89,77,65,77,70,64,98,81,54,30.21,30.14,11,0,11,0.00
2013-7-17,92,79,66,81,74,65,98,85,58,30.18,30.00,6,0,6,0.00
2013-7-18,91,81,72,80,75,71,98,83,60,30.01,29.87,9,0,9,0.00
2013-7-19,92,83,73,80,75,67,95,79,61,29.88,29.65,26,1,26,0.59
2013-7-20,79,73,66,71,67,63,98,83,60,29.83,29.68,14,0,14,0.00
2013-7-21,76,68,59,65,61,58,96,81,56,29.96,29.82,10,0,10,0.00
2013-7-22,81,69,55,69,63,54,98,82,61,29.96,29.74,10,0,10,0.00
2013-7-23,84,74,68,74,69,66,98,85,61,29.74,29.55,9,0,9,0.00
2013-7-24,70,62,50,66,55,48,95,78,63,30.01,29.59,18,0,18,0.00
2013-7-25,74,61,45,58,52,44,98,75,49,30.09,30.01,15,0,15,0.59
2013-7-26,77,63,48,62,55,46,98,77,46,30.07,29.98,9,0,9,0.00
2013-7-27,81,66,52,70,61,51,98,86,59,29.99,29.84,14,0,14,0.00
2013-7-28,74,67,62,70,65,61,98,94,76,29.94,29.80,8,0,8,0.00
2013-7-29,72,63,55,63,59,55,99,89,63,30.08,29.94,9,0,9,0.00
2013-7-30,74,64,57,64,60,56,98,86,61,30.16,30.07,10,0,10,0.04
2013-7-31,80,66,53,67,60,52,100,82,52,30.11,29.92,8,0,8,0.00